Date String (YYYY-MM-DD hh:mm:ss) UTC,Instrument flags,Ambient pressure (hPa),Sample flow (lpm),Bypass flow (lpm),Sample temperature (°C),Ambient temperature (°C),ASC tube jacket temperature (°C),LED temperature (°C),Box temperature (°C),Sample RH (%),Span deviation,Mass concentration (μg/m³),Mass concentration (μg/m³),Mass concentration (μg/m³)
DateTimeUTC,F1_M11,P_M11,Q1_M11,Q2_M11,T1_M11,T2_M11,T3_M11,T4_M11,T5_M11,U1_M11,ZSPAN_M11,X0_M11,X2_M11,X1_M11
2022-10-02 18:00:00,,0829.8,5.01,0.00,29.7,28.3,00.0,38.4,31.5,28.3,-001.6,0009.38,0005.49,0005.03
2022-10-02 18:01:00,,0829.8,5.00,0.00,29.7,28.3,00.0,38.4,31.5,28.4,-000.7,0009.31,0005.48,0005.03
2022-10-02 18:02:00,,0829.6,4.99,0.00,29.7,28.4,00.0,38.4,31.5,28.3,0000.0,0009.32,0005.46,0005.00
2022-10-02 18:03:00,,0829.6,5.00,0.00,29.7,28.4,00.0,38.4,31.5,28.8,0000.0,0009.35,0005.46,0004.99
2022-10-02 18:04:00,,0829.6,5.01,0.00,29.7,28.4,00.0,38.4,31.6,29.0,0000.0,0009.39,0005.43,0004.98
2022-10-02 18:05:00,,0829.6,4.99,0.00,29.7,28.5,00.0,38.4,31.6,28.5,0000.0,0009.71,0005.41,0004.95
2022-10-02 18:06:00,,0829.6,5.01,0.00,29.7,28.5,00.0,38.4,31.6,28.4,0000.0,0009.25,0005.41,0004.93
2022-10-02 18:07:00,,0829.7,4.99,0.00,29.7,28.5,00.0,38.5,31.6,28.6,0000.0,0009.16,0005.36,0004.92
2022-10-02 18:08:00,,0829.6,5.01,0.00,29.8,28.5,00.0,38.5,31.6,28.5,0000.0,0009.08,0005.33,0004.89
2022-10-02 18:09:00,,0829.6,5.00,0.00,29.8,28.6,00.0,38.5,31.6,28.6,0000.0,0009.10,0005.28,0004.85
2022-10-02 18:10:00,,0829.6,4.99,0.00,29.8,28.6,00.0,38.5,31.7,28.5,0000.0,0009.31,0005.23,0004.83
2022-10-02 18:11:00,,0829.6,5.01,0.00,29.8,28.6,00.0,38.5,31.7,28.5,0000.0,0009.32,0005.22,0004.81
2022-10-02 18:12:00,,0829.6,4.99,0.00,29.8,28.6,00.0,38.5,31.7,28.2,0000.0,0009.85,0005.20,0004.79
2022-10-02 18:13:00,,0829.6,5.00,0.00,29.8,28.6,00.0,38.5,31.7,28.2,0000.0,0010.08,0005.20,0004.80
2022-10-02 18:14:00,,0829.6,5.00,0.00,29.8,28.6,00.0,38.5,31.7,28.1,0000.0,0010.09,0005.20,0004.80
2022-10-02 18:15:00,,0829.5,4.99,0.00,29.8,28.7,00.0,38.5,31.7,28.2,0000.0,0010.16,0005.22,0004.79
2022-10-02 18:16:00,,0829.5,5.01,0.00,29.9,28.6,00.0,38.5,31.8,28.4,0000.0,0009.72,0005.20,0004.77
2022-10-02 18:17:00,,0829.5,5.01,0.00,29.9,28.7,00.0,38.6,31.7,28.0,0000.0,0009.75,0005.18,0004.73
2022-10-02 18:18:00,,0829.5,4.99,0.00,29.9,28.7,00.0,38.6,31.8,28.0,0000.0,0010.08,0005.14,0004.70
2022-10-02 18:19:00,,0829.6,5.01,0.00,29.9,28.7,00.0,38.6,31.7,28.2,0000.0,0009.97,0005.07,0004.65
2022-10-02 18:20:00,,0829.6,5.00,0.00,29.9,28.7,00.0,38.6,31.7,28.3,0000.0,0009.83,0004.99,0004.59
2022-10-02 18:21:00,,0829.5,4.99,0.00,29.9,28.7,00.0,38.6,31.8,28.5,0000.0,0009.37,0004.93,0004.53
2022-10-02 18:22:00,,0829.4,5.00,0.00,29.9,28.7,00.0,38.6,31.8,28.1,0000.0,0009.31,0004.90,0004.48
2022-10-02 18:23:00,,0829.5,5.01,0.00,29.9,28.8,00.0,38.6,31.8,27.5,0000.0,0009.10,0004.86,0004.43
2022-10-02 18:24:00,,0829.5,4.99,0.00,30.0,28.8,00.0,38.7,31.9,27.5,0000.0,0008.67,0004.78,0004.38
2022-10-02 18:25:00,,0829.5,5.01,0.00,30.0,28.8,00.0,38.7,31.9,27.4,0000.0,0008.56,0004.73,0004.32
2022-10-02 18:26:00,,0829.5,5.01,0.00,30.0,28.8,00.0,38.7,31.9,27.5,0000.0,0008.48,0004.66,0004.26
2022-10-02 18:27:00,,0829.5,4.99,0.00,30.0,28.8,00.0,38.7,31.9,27.3,0000.0,0008.47,0004.60,0004.19
2022-10-02 18:28:00,,0829.5,5.01,0.00,30.0,28.8,00.0,38.7,31.9,27.3,0000.0,0008.34,0004.53,0004.14
2022-10-02 18:29:00,,0829.4,5.00,0.00,30.0,28.8,00.0,38.7,31.9,28.2,0000.0,0007.80,0004.49,0004.10
2022-10-02 18:30:00,,0829.5,5.00,0.00,30.0,28.9,00.0,38.7,31.9,28.3,0000.0,0007.85,0004.51,0004.09
2022-10-02 18:31:00,,0829.5,5.01,0.00,30.1,28.9,00.0,38.7,31.9,28.5,0000.0,0007.96,0004.56,0004.10
2022-10-02 18:32:00,,0829.5,4.99,0.00,30.1,28.9,00.0,38.7,31.9,28.3,0000.0,0008.03,0004.59,0004.11
2022-10-02 18:33:00,,0829.5,5.01,0.00,30.1,28.9,00.0,38.7,32.0,27.5,0000.0,0008.50,0004.55,0004.09
2022-10-02 18:34:00,,0829.5,5.00,0.00,30.1,28.9,00.0,38.8,32.0,27.3,0000.0,0008.55,0004.55,0004.07
2022-10-02 18:35:00,,0829.5,4.99,0.00,30.1,28.9,00.0,38.8,32.0,27.5,0000.0,0008.65,0004.54,0004.07
2022-10-02 18:36:00,,0829.4,5.00,0.00,30.1,29.0,00.0,38.8,32.0,27.2,0000.0,0008.73,0004.52,0004.06
2022-10-02 18:37:00,,0829.4,4.99,0.00,30.1,29.0,00.0,38.8,32.0,26.7,0000.0,0008.79,0004.55,0004.07
2022-10-02 18:38:00,,0829.3,5.00,0.00,30.1,29.0,00.0,38.8,32.0,26.8,0000.0,0008.75,0004.55,0004.07
2022-10-02 18:39:00,,0829.4,4.99,0.00,30.2,29.0,00.0,38.8,32.0,26.6,0000.0,0008.87,0004.57,0004.07
2022-10-02 18:40:00,,0829.3,5.00,0.00,30.2,29.0,00.0,38.8,32.0,26.4,0000.0,0008.80,0004.52,0004.04
2022-10-02 18:41:00,,0829.3,4.99,0.00,30.2,29.0,00.0,38.8,32.0,26.0,0000.0,0008.69,0004.45,0004.00
2022-10-02 18:42:00,,0829.4,5.01,0.00,30.2,29.0,00.0,38.9,32.1,26.2,0000.0,0008.60,0004.41,0003.96
2022-10-02 18:43:00,,0829.3,4.98,0.00,30.2,29.0,00.0,38.9,32.1,26.5,0000.0,0008.51,0004.37,0003.95
2022-10-02 18:44:00,,0829.3,5.01,0.00,30.2,29.1,00.0,38.9,32.1,26.6,0000.0,0007.90,0004.36,0003.96
2022-10-02 18:45:00,,0829.3,5.00,0.00,30.2,29.1,00.0,38.9,32.1,26.8,0000.0,0007.53,0004.32,0003.95
2022-10-02 18:46:00,,0829.3,4.99,0.00,30.3,29.1,00.0,38.9,32.1,26.8,0000.0,0007.91,0004.33,0003.95
2022-10-02 18:47:00,,0829.4,5.00,0.00,30.3,29.1,00.0,38.9,32.1,26.8,0000.0,0008.13,0004.36,0003.97
2022-10-02 18:48:00,,0829.3,5.01,0.00,30.3,29.1,00.0,38.9,32.1,26.3,0000.0,0008.17,0004.40,0004.00
2022-10-02 18:49:00,,0829.4,4.99,0.00,30.3,29.1,00.0,38.9,32.1,26.5,0000.0,0008.15,0004.41,0004.04
2022-10-02 18:50:00,,0829.3,5.00,0.00,30.3,29.2,00.0,39.0,32.1,27.2,0000.0,0008.45,0004.42,0004.07
2022-10-02 18:51:00,,0829.3,5.01,0.00,30.3,29.2,00.0,39.0,32.2,27.6,0000.0,0008.49,0004.45,0004.10
2022-10-02 18:52:00,,0829.2,4.99,0.00,30.3,29.2,00.0,39.0,32.2,26.7,0000.0,0008.55,0004.51,0004.16
2022-10-02 18:53:00,,0829.3,5.01,0.00,30.4,29.2,00.0,39.0,32.2,26.8,0000.0,0008.55,0004.53,0004.21
2022-10-02 18:54:00,,0829.3,5.00,0.00,30.4,29.2,00.0,39.0,32.2,27.1,0000.0,0008.67,0004.59,0004.24
2022-10-02 18:55:00,,0829.3,4.99,0.00,30.4,29.3,00.0,39.0,32.2,27.3,0000.0,0008.82,0004.66,0004.30
2022-10-02 18:56:00,,0829.3,5.01,0.00,30.4,29.3,00.0,39.1,32.2,27.2,0000.0,0009.33,0004.78,0004.35
2022-10-02 18:57:00,,0829.2,4.99,0.00,30.4,29.3,00.0,39.1,32.3,27.0,0000.0,0009.40,0004.83,0004.40
2022-10-02 18:58:00,,0829.2,4.99,0.00,30.4,29.3,00.0,39.1,32.3,27.2,0000.0,0009.31,0004.88,0004.45
2022-10-02 18:59:00,,0829.2,5.01,0.00,30.4,29.3,00.0,39.1,32.3,27.3,0000.0,0009.23,0004.87,0004.48
